Location: Unspecified
(29.9680°N, 0.0000°E)
Time: 06:20:40
(UTC+00:00)

Vanguard 1 Rocket - Pass Details

Date: 24 June 2019
Orbit: 651 x 4225 km, 34.3° (Epoch: 16 July)

Event Time Altitude Azimuth Distance (km) Brightness Sun altitude
Rises 22:33:18 0° 288° (WNW) 4,622 11.5 -32.5°
Reaches altitude 10° 22:37:11 10° 282° (WNW) 3,149 10.5 -32.8°
Enters shadow 22:41:11 28° 262° (W) 1,709 8.8 -33.2°
